Preview of NWS' New Version of Forecast
This preview is not operational and should not be used for support decisions.

Regional Weather Roundup (RWR)

Issued by National Weather Service (NWS)

                            
000
ASUS43 KTOP 181308
RWRKS 

WEATHER ROUNDUP FOR KANSAS
NATIONAL WEATHER SERVICE GOODLAND KS
800 AM CDT THU APR 18 2019

NOTE:  "FAIR" INDICATES FEW OR NO CLOUDS BELOW 12,000 FEET WITH NO
SIGNIFICANT WEATHER AND/OR OBSTRUCTIONS TO VISIBILITY.

KSZ001>006-013>018-027>032-041>047-181400-
NORTHWEST KANSAS
  
CITY           SKY/WX    TMP DP  RH WIND       PRES   REMARKS
GOODLAND       CLEAR     40  36  86 NW13      30.03R WCI  32          
HAYS           SUNNY     43  37  79 NW10      29.97R                  
HILL CITY      SUNNY     46  38  73 NW13G22   29.97R                  
RUSSELL        SUNNY     43  37  79 NW9       29.95R                  
$$

KSZ061>065-074>080-084>089-181400-
SOUTHWEST KANSAS
  
CITY           SKY/WX    TMP DP  RH WIND       PRES   REMARKS
DODGE CITY     SUNNY     42  36  79 NW12      30.00R                  
ELKHART        CLEAR     46  38  72 NW9       30.08R                  
GARDEN CITY    SUNNY     43  35  73 NW8       30.02R                  
GREAT BEND     CLOUDY    43  39  86 NW9       29.98R                  
LIBERAL        CLEAR     44  38  79 NW8       30.06R                  
PRATT          PTSUNNY   46  42  88 NW9       29.98R                  
$$

KSZ066>073-081>083-090>101-181400-
SOUTHEAST KANSAS
  
CITY           SKY/WX    TMP DP  RH WIND       PRES   REMARKS
CHANUTE        CLOUDY    52  44  74 N12       29.86R                  
COFFEYVILLE    CLOUDY    52  46  80 N13       29.84R                  
HUTCHINSON     CLOUDY    48  41  76 NW15      29.93R                  
MEDICINE LODGE   N/A     49  41  74 NW10      29.95R                  
NEWTON         PTSUNNY   47  42  83 N16       29.92R                  
PARSONS          N/A     52  46  80 N14       29.86R                  
WICHITA INTL   PTSUNNY   50  42  74 N16       29.91R                  
WICHITA JABRA  CLOUDY    48  43  82 N14G22    29.90R                  
WICHITA MCCONL CLOUDY    49  42  76 N15G21    29.90R                  
WINFIELD       CLOUDY    50  44  80 N12       29.91R                  
$$

KSZ007>012-019>026-033>040-048>060-102>105-181400-
NORTHEAST KANSAS
  
CITY           SKY/WX    TMP DP  RH WIND       PRES   REMARKS
CONCORDIA      SUNNY     47  41  80 NW10      29.93R                  
EMPORIA        CLOUDY    48  44  86 N12       29.88R                  
LAWRENCE       PTSUNNY   48  42  80 NW10      29.86R                  
MANHATTAN      PTSUNNY   48  41  76 VRB6      29.91R                  
MARYSVILLE     PTSUNNY   45  41  87 NW12      29.89R                  
OLATHE IND     CLOUDY    48  44  86 NW13G21   29.85R                  
OLATHE EXE     CLOUDY    48  41  76 N12       29.83R                  
SALINA         CLOUDY    47  41  80 NW10      29.94R                  
TOPEKA BILLARD CLOUDY    48  41  76 NW10      29.87R                  
TOPEKA FORBES  PTSUNNY   48  41  76 N14       29.87R                  
$$